Location: Briis
(48.6240°N, 2.1211°E)
Time: 01:42:30
(UTC+00:00)

SL-4 R/B - Pass Details

Date: 25 September 2020
Orbit: 428 x 666 km, 51.6° (Epoch: 23 October)

Event Time Altitude Azimuth Distance (km) Brightness Sun altitude
Exits shadow 02:21:36 20° 101° (E) 1,464 4.5 -31.5°
Drops below altitude 10° 02:23:35 10° 81° (E) 2,029 5.5 -31.2°
Sets 02:26:15 0° 70° (ENE) 2,969 6.7 -30.9°
